LKKB Weather Reports


time (UTC)temp
F
wind
direction
speed
knots
gust
knots
rain 1hr
in
rain 24hr
in
rain mn
in
humidity
%
barometer
mb
20260905175209 70 290 10.4 0.0 0.00 0.00 0.00 40 1020.0
20260905174710 70 290 10.4 0.0 0.00 0.00 0.00 40 1020.0
20260905174110 70 290 10.4 0.0 0.00 0.00 0.00 40 1020.0
20260905173417 70 290 10.4 0.0 0.00 0.00 0.00 40 1020.0
20260905172710 70 290 12.2 0.0 0.00 0.00 0.00 40 1020.0
20260905172117 70 290 12.2 0.0 0.00 0.00 0.00 40 1020.0
20260905171909 70 290 12.2 0.0 0.00 0.00 0.00 40
20260905171532 70 290 12.2 0.0 0.00 0.00 0.00 40 1020.0
20260905170524 70 290 12.2 0.0 0.00 0.00 0.00 40 1020.0
20260905163810 70 300 11.3 0.0 0.00 0.00 0.00 43 1019.0
20260905163102 70 300 11.3 0.0 0.00 0.00 0.00 43 1019.0
20260905162909 72 290 11.3 0.0 0.00 0.00 0.00 40 1019.0
20260905162334 72 300 12.2 0.0 0.00 0.00 0.00 37
20260905162210 72 290 11.3 0.0 0.00 0.00 0.00 40 1019.0
20260905161610 72 290 11.3 0.0 0.00 0.00 0.00 40 1019.0
20260905161110 72 290 11.3 0.0 0.00 0.00 0.00 40 1019.0
20260905160810 72 290 11.3 0.0 0.00 0.00 0.00 40 1019.0
20260905160311 72 290 11.3 0.0 0.00 0.00 0.00 40 1019.0
20260905154710 72 300 11.3 0.0 0.00 0.00 0.00 40 1019.0
20260905154531 72 300 11.3 0.0 0.00 0.00 0.00 40 1019.0
20260905154210 72 300 11.3 0.0 0.00 0.00 0.00 40 1019.0
20260905151814 70 300 11.3 0.0 0.00 0.00 0.00 43 1019.0
20260905151800 72 310 10.4 0.0 0.00 0.00 0.00 40
20260905151111 70 300 11.3 0.0 0.00 0.00 0.00 43 1019.0
20260905150609 70 300 11.3 0.0 0.00 0.00 0.00 43 1019.0
20260905145909 72 300 11.3 0.0 0.00 0.00 0.00 43 1019.0
20260905145610 72 300 11.3 0.0 0.00 0.00 0.00 43 1019.0
20260905145109 72 300 11.3 0.0 0.00 0.00 0.00 43 1019.0
20260905144209 72 300 11.3 0.0 0.00 0.00 0.00 43 1019.0
20260905143710 72 300 11.3 0.0 0.00 0.00 0.00 43 1019.0
20260905142117 72 280 14.8 0.0 0.00 0.00 0.00 40 1019.0
20260905141801 72 300 12.2 0.0 0.00 0.00 0.00 37
20260905140422 72 280 14.8 0.0 0.00 0.00 0.00 40 1019.0
20260905140110 72 280 14.8 0.0 0.00 0.00 0.00 40 1019.0
20260905135032 72 270 15.6 0.0 0.00 0.00 0.00 40 1019.0
20260905134609 72 270 15.6 0.0 0.00 0.00 0.00 40 1019.0
20260905134210 72 270 15.6 0.0 0.00 0.00 0.00 40 1019.0
20260905133811 72 270 15.6 0.0 0.00 0.00 0.00 40 1019.0
20260905133416 72 270 15.6 0.0 0.00 0.00 0.00 40 1019.0
20260905133109 72 270 15.6 0.0 0.00 0.00 0.00 40 1019.0
20260905132213 70 290 13.9 0.0 0.00 0.00 0.00 43 1019.0
20260905132052 72 290 12.2 0.0 0.00 0.00 0.00 40
20260905131609 70 290 13.9 0.0 0.00 0.00 0.00 43 1019.0
20260905131110 70 290 13.9 0.0 0.00 0.00 0.00 43 1019.0
20260905130710 70 290 13.9 0.0 0.00 0.00 0.00 43 1019.0
20260905130211 70 290 13.9 0.0 0.00 0.00 0.00 43 1019.0
20260905125609 72 260 14.8 0.0 0.00 0.00 0.00 40 1019.0
20260905125410 72 260 14.8 0.0 0.00 0.00 0.00 40 1019.0
20260905125210 72 260 14.8 0.0 0.00 0.00 0.00 40 1019.0
20260905124909 72 260 14.8 0.0 0.00 0.00 0.00 40 1019.0
20260905124531 72 260 14.8 0.0 0.00 0.00 0.00 40 1019.0
20260905124031 72 260 14.8 0.0 0.00 0.00 0.00 40 1019.0
20260905123610 72 260 14.8 0.0 0.00 0.00 0.00 40 1019.0
20260905123309 72 260 14.8 0.0 0.00 0.00 0.00 40 1019.0
20260905123110 72 260 14.8 0.0 0.00 0.00 0.00 40 1019.0
20260905122110 70 270 14.8 0.0 0.00 0.00 0.00 46 1019.0
20260905122003 72 260 15.6 0.0 0.00 0.00 0.00 40
20260905121714 70 270 14.8 0.0 0.00 0.00 0.00 46 1019.0
20260905121109 70 270 14.8 0.0 0.00 0.00 0.00 46 1019.0
20260905120525 70 270 14.8 0.0 0.00 0.00 0.00 46 1019.0
20260905115811 70 260 15.6 26.1 0.00 0.00 0.00 43 1019.0
20260905114031 70 260 15.6 26.1 0.00 0.00 0.00 43 1019.0
20260905113103 70 260 15.6 26.1 0.00 0.00 0.00 43 1019.0
20260905112710 70 270 11.3 0.0 0.00 0.00 0.00 49 1019.0
20260905112216 70 270 11.3 0.0 0.00 0.00 0.00 49 1019.0
20260905111934 68 260 13.9 22.6 0.00 0.00 0.00 45
20260905111817 70 270 11.3 0.0 0.00 0.00 0.00 49 1019.0
20260905110104 70 270 11.3 0.0 0.00 0.00 0.00 49 1019.0
20260905105209 68 250 13.9 0.0 0.00 0.00 0.00 56 1019.0
20260905105031 68 250 13.9 0.0 0.00 0.00 0.00 56 1019.0
20260905104610 68 250 13.9 0.0 0.00 0.00 0.00 56 1019.0
20260905104310 68 250 13.9 0.0 0.00 0.00 0.00 56 1019.0
20260905103103 68 250 13.9 0.0 0.00 0.00 0.00 56 1019.0
20260905102810 68 250 13.0 0.0 0.00 0.00 0.00 52 1019.0
20260905102315 68 250 13.9 0.0 0.00 0.00 0.00 52
20260905102308 68 250 13.0 0.0 0.00 0.00 0.00 52 1019.0
20260905101909 68 250 13.0 0.0 0.00 0.00 0.00 52 1019.0
20260905101410 68 250 13.0 0.0 0.00 0.00 0.00 52 1019.0
20260905100810 68 250 13.0 0.0 0.00 0.00 0.00 52 1019.0
20260905100313 68 250 13.0 0.0 0.00 0.00 0.00 52 1019.0
20260905095210 66 250 12.2 0.0 0.00 0.00 0.00 59 1019.0
20260905094810 66 250 12.2 0.0 0.00 0.00 0.00 59 1019.0
20260905094209 66 250 12.2 0.0 0.00 0.00 0.00 59 1019.0
20260905093710 66 250 12.2 0.0 0.00 0.00 0.00 59 1019.0
20260905092410 64 260 12.2 0.0 0.00 0.00 0.00 63 1019.0
20260905091915 64 260 12.2 0.0 0.00 0.00 0.00 63 1019.0
20260905091901 64 250 12.2 0.0 0.00 0.00 0.00 59
20260905090810 64 260 12.2 0.0 0.00 0.00 0.00 63 1019.0
20260905084209 64 250 12.2 0.0 0.00 0.00 0.00 67 1019.0
20260905083103 64 250 12.2 0.0 0.00 0.00 0.00 67 1019.0
20260905081855 63 260 12.2 0.0 0.00 0.00 0.00 67
20260905073103 63 240 12.2 0.0 0.00 0.00 0.00 72 1018.0
20260905072157 61 240 10.4 0.0 0.00 0.00 0.00 77
20260905063103 59 230 11.3 0.0 0.00 0.00 0.00 82 1019.0
20260905061856 59 220 10.4 0.0 0.00 0.00 0.00 82
20260905060103 59 220 8.7 0.0 0.00 0.00 0.00 87 1018.0
20260905053103 57 230 10.4 0.0 0.00 0.00 0.00 87 1018.0
20260905051855 57 220 7.8 0.0 0.00 0.00 0.00 87
20260905050103 57 220 7.8 0.0 0.00 0.00 0.00 87 1017.0
20260905043103 57 250 2.6 0.0 0.00 0.00 0.00 87 1017.0
20260905042257 57 220 6.1 0.0 0.00 0.00 0.00 87
20260905033102 59 250 10.4 0.0 0.00 0.00 0.00 77 1017.0
20260905032214 59 250 10.4 0.0 0.00 0.00 0.00 77 1017.0
20260905031856 61 250 12.2 0.0 0.00 0.00 0.00 72
20260905023103 61 250 8.7 0.0 0.00 0.00 0.00 72 1016.0
20260905021856 61 250 10.4 0.0 0.00 0.00 0.00 67
20260905020103 61 250 8.7 0.0 0.00 0.00 0.00 72 1016.0
20260905013104 64 260 8.7 0.0 0.00 0.00 0.00 59 1015.0
20260905012156 64 250 10.4 0.0 0.00 0.00 0.00 63
20260905010103 64 260 10.4 0.0 0.00 0.00 0.00 63 1015.0
20260905003102 64 280 10.4 0.0 0.00 0.00 0.00 63 1015.0
20260905001910 66 290 13.9 0.0 0.00 0.00 0.00 55
20260905000103 66 290 13.0 22.6 0.00 0.00 0.00 59 1015.0
20260904233103 66 300 11.3 0.0 0.00 0.00 0.00 68 1015.0
20260904231941 64 330 7.8 0.0 0.00 0.00 0.00 67
20260904223102 64 20 7.8 0.0 0.00 0.00 0.00 67 1013.0
20260904222328 64 360 6.1 0.0 0.00 0.00 0.00 67
20260904213102 66 360 5.2 0.0 0.00 0.00 0.00 68 1011.0
20260904211912 66 360 6.1 0.0 0.00 0.00 0.00 63
20260904203102 72 360 7.8 0.0 0.00 0.00 0.00 60 1011.0
20260904201911 75 220 10.4 0.0 0.00 0.00 0.00 57
20260904193802 73 230 7.8 0.0 0.00 0.00 0.00 60 1011.0
20260904192157 79 230 7.8 0.0 0.00 0.00 0.00 47
20260904183103 77 230 8.7 0.0 0.00 0.00 0.00 53 1011.0
20260904181911 79 220 10.4 0.0 0.00 0.00 0.00 47
20260904180103 79 220 10.4 0.0 0.00 0.00 0.00 50 1010.0